COSMOS 2084 (20663 NORAD) Tracking and Keplerian Element Data

This shows tracking and keplerian element data for the satellite.

Feedback or suggestion? Click here.




ElementValue
Catalog20663
NameCOSMOS 2084
Epoch Orbit81812
Epoch Day12.67580495
Epoch Year2024
RAAN124.0271
Inclination62.7919
Eccentricity0.0125474
Argument of Perigee105.4754
Mean Anonmoly256.024
Mean Motion14.96959573
Decay Rate4.878E-05
L11 20663U 90055A 24012.67580495 .00004878 00000+0 37554-3 0 9992
L22 20663 62.7919 124.0271 0125474 105.4754 256.0240 14.96959573818126



Live tracking and technical data element details for COSMOS 2084 (NORAD 20663). COSMOS 2084 can be tracked NOW for your location showing map with azimuth and elevation plus other details from your city location.







IsCatalogInMostPopularTable: catalog: 20663, numindb: 567
Update: records affected: 1



GetName: 20663 COSMOS 2084

Hit Count: updated at: Mon, 15 Apr 2024 00:03:20 GMT